Home > Time Zones > World Clock > Weather > Qatar > Doha > Past weeks

Flag for Qatar Weather past 2 weeks in Doha, Qatar

Now
91 °F

Clear.


Feels Like: 118 °F
Forecast: 95 / 110 °F
Wind: 3 mph from North

Location: Doha International Airport

Current Time: Jul 6, 2015 at 3:06:14 AM

Latest Report: Jul 6, 2015 at 2:00 AM


Visibility: 10 mi

Pressure: 29.53 "Hg

Humidity: 80%

Dew point: 84 °F

Location of DohaLocation

Historic Weather in Doha — Graph

°F

Doha temperature yesterday

Maximum temperature yesterday: 106 °F (at 11:00 AM)
Minimum temperature yesterday: 90 °F (at 3:00 AM)
Average temperature yesterday: 97 °F

Past Weeks' High & Low Weather Summary

 TemperatureHumidityPressure
High109 °F (Jun 24, 1:00 PM)84% (Jul 4, 4:00 AM)29.65 "Hg (Jul 4, 4:00 AM)
Low81 °F (Jun 26, 7:00 PM)7% (Jun 25, 3:00 PM)29.42 "Hg (Jun 21, 12:00 AM)
Average97 °F32%29.53 "Hg
* Reported Jun 20 10:00 PM — Jul 5 10:00 PM, Doha, Weather by CustomWeather, © 2015

Note: Actual official high and low records may vary slightly from our data, if they occured in-between our weather recording intervals... More about our weather records

Advertising

Doha weather history for previous 24 hours

 ConditionsComfort  
Time TempWeatherWind HumidityBarometerVisibility
10:00 PM
Sun, Jul 5
91 °FHaze.3 mph80%29.53 "Hg3 mi
9:00 PM91 °FHaze.3 mph80%29.53 "Hg3 mi
8:00 PM93 °FClear.6 mph71%29.50 "Hg4 mi
7:00 PM95 °FClear.6 mph63%29.50 "Hg4 mi
6:00 PM97 °FClear.5 mph53%29.50 "Hg4 mi
5:00 PM100 °FClear.6 mph40%29.50 "Hg4 mi
4:00 PM102 °FClear.7 mph42%29.50 "Hg4 mi
3:00 PM102 °FClear.8 mph45%29.50 "Hg4 mi
2:00 PM104 °FClear.9 mph33%29.50 "Hg4 mi
1:00 PM106 °FClear.9 mph32%29.53 "Hg4 mi
12:00 PM106 °FClear.8 mph34%29.53 "Hg4 mi
11:00 AM106 °FClear.6 mph34%29.56 "Hg4 mi
10:00 AM104 °FClear.5 mph40%29.56 "Hg4 mi
9:00 AM100 °FHaze.3 mph47%29.56 "Hg3 mi
8:00 AM97 °FHaze.5 mph56%29.56 "Hg3 mi
7:00 AM95 °FClear.3 mph60%29.56 "Hg4 mi
6:00 AM93 °FClear.3 mph59%29.56 "Hg4 mi
5:00 AM90 °FClear.3 mph75%29.53 "Hg4 mi
4:00 AM90 °FPassing clouds.3 mph71%29.50 "HgN/A
3:00 AM90 °FPassing clouds.6 mph75%29.50 "HgN/A
Weather by CustomWeather, © 2015

See weather overviewHow to use our weather pages